If you wish to contribute or participate in the discussions about articles you are invited to join SKYbrary as a registered user

 Actions

Neuquén/Presidente Perón International Airport

From SKYbrary Wiki

SAZN
Airport
ICAO: SAZN – IATA: NQN
Summary
Name Neuquén/Presidente Perón International Airport
Region South America and Caribbean
Territory Argentina AR.gif
Location Neuquén, Neuquén
Serving Neuquén
Elevation 292.913 m
961 ft
961 ft292.913 m
Coordinates 38° 57' 7.06" S, 68° 8' 25.15" W
Runways
Designator Length Width Surface ROPS
9/27 2570 m8,431.759 ft
45 m147.638 ft
ASP yes/yes


METAR
Observation SAZN 252200Z 23004G14KT CAVOK 27/07 Q1013
Station Neuquen Aerodrome
Date/Time 25 February 2020 22:00:00
Wind direction 230°
Wind speed 04 kts
Lowest cloud amount clouds and visibility OK
Temperature 27°C
Dew point 7°C
Humidity 28%
QNH 1013 hPa
Weather condition n/a

Presidente Perón International Airport is an airport in Neuquén Province, Argentina serving the cities of Neuquén, Cipolletti, Plottier, Centenario, and General Roca.

Maps

Terrain

Loading map...

Airport Layout

Loading map...


Accidents & Serious Incidents at or in vicinity of SAZN

None on SKYbrary